Time,TemperatureF,DewpointF,PressureIn,WindDirection,WindDirectionDegrees,WindSpeedMPH,WindSpeedGustMPH,Humidity,HourlyPrecipIn,Conditions,Clouds,dailyrainin,SoftwareType,DateUTC
2013-03-30 00:00:00,39.1,28.0,30.25,WNW,302,0.0,0.0,64,0.00,,CLR,0.00,VWS V14.01,2013-03-30 04:00:00,
2013-03-30 00:01:00,39.1,28.0,30.25,WNW,302,0.0,0.0,64,0.00,,CLR,0.00,VWS V14.01,2013-03-30 04:01:00,
2013-03-30 00:06:00,38.8,27.7,30.25,WNW,302,0.0,0.0,64,0.00,,CLR,0.00,VWS V14.01,2013-03-30 04:06:00,
2013-03-30 00:11:00,38.3,27.6,30.25,WNW,302,0.0,0.0,65,0.00,,CLR,0.00,VWS V14.01,2013-03-30 04:11:00,
2013-03-30 00:15:00,38.0,27.3,30.25,WNW,302,0.0,0.0,65,0.00,,OVC100,0.00,VWS V14.01,2013-03-30 04:15:00,
2013-03-30 00:16:00,38.0,27.3,30.25,WNW,302,0.0,0.0,65,0.00,,CLR,0.00,VWS V14.01,2013-03-30 04:16:00,
2013-03-30 00:22:00,37.8,27.5,30.24,WNW,302,0.0,0.0,66,0.00,,CLR,0.00,VWS V14.01,2013-03-30 04:22:00,
2013-03-30 00:27:00,37.5,27.2,30.24,WNW,302,0.0,0.0,66,0.00,,CLR,0.00,VWS V14.01,2013-03-30 04:27:00,
2013-03-30 00:30:00,37.3,27.0,30.24,WNW,302,0.0,0.0,66,0.00,,OVC100,0.00,VWS V14.01,2013-03-30 04:30:00,
2013-03-30 00:32:00,37.3,27.4,30.24,WNW,302,0.0,0.0,67,0.00,,CLR,0.00,VWS V14.01,2013-03-30 04:32:00,
2013-03-30 00:37:00,37.3,27.0,30.24,WNW,302,0.0,0.0,66,0.00,,CLR,0.00,VWS V14.01,2013-03-30 04:37:00,
2013-03-30 00:42:00,37.0,26.7,30.24,WNW,302,0.0,0.0,66,0.00,,CLR,0.00,VWS V14.01,2013-03-30 04:42:00,
2013-03-30 00:45:00,36.9,27.0,30.24,WNW,302,0.0,0.0,67,0.00,,OVC100,0.00,VWS V14.01,2013-03-30 04:45:00,
2013-03-30 00:47:00,36.8,27.2,30.24,WNW,302,0.0,0.0,68,0.00,,CLR,0.00,VWS V14.01,2013-03-30 04:47:00,
2013-03-30 00:52:00,36.3,27.1,30.24,WNW,302,0.0,0.0,69,0.00,,CLR,0.00,VWS V14.01,2013-03-30 04:52:00,
2013-03-30 00:57:00,36.2,27.0,30.24,WNW,302,0.0,0.0,69,0.00,,CLR,0.00,VWS V14.01,2013-03-30 04:57:00,
2013-03-30 01:00:00,36.2,27.0,30.24,WNW,302,0.0,0.0,69,0.00,,OVC100,0.00,VWS V14.01,2013-03-30 05:00:00,
2013-03-30 01:02:00,36.0,26.8,30.24,WNW,302,0.0,0.0,69,0.00,,CLR,0.00,VWS V14.01,2013-03-30 05:02:00,
2013-03-30 01:07:00,35.9,26.7,30.24,WNW,302,0.0,0.0,69,0.00,,CLR,0.00,VWS V14.01,2013-03-30 05:07:00,
2013-03-30 01:12:00,35.8,26.6,30.24,WNW,302,0.0,0.0,69,0.00,,CLR,0.00,VWS V14.01,2013-03-30 05:12:00,
2013-03-30 01:15:00,35.8,26.6,30.24,WNW,302,0.0,0.0,69,0.00,,OVC100,0.00,VWS V14.01,2013-03-30 05:15:00,
2013-03-30 01:17:00,35.8,26.6,30.24,WNW,302,0.0,0.0,69,0.00,,CLR,0.00,VWS V14.01,2013-03-30 05:17:00,
2013-03-30 01:22:00,35.6,26.5,30.24,WNW,302,0.0,0.0,69,0.00,,CLR,0.00,VWS V14.01,2013-03-30 05:22:00,
2013-03-30 01:27:00,35.5,26.4,30.24,WNW,302,0.0,0.0,69,0.00,,CLR,0.00,VWS V14.01,2013-03-30 05:27:00,
2013-03-30 01:30:00,35.2,26.4,30.24,WNW,302,0.0,0.0,70,0.00,,OVC100,0.00,VWS V14.01,2013-03-30 05:30:00,
2013-03-30 01:32:00,35.0,26.2,30.24,WNW,302,0.0,0.0,70,0.00,,CLR,0.00,VWS V14.01,2013-03-30 05:32:00,
2013-03-30 01:37:00,34.7,26.3,30.24,WNW,302,0.0,0.0,71,0.00,,CLR,0.00,VWS V14.01,2013-03-30 05:37:00,
2013-03-30 01:43:00,34.7,26.3,30.24,WNW,302,0.0,0.0,71,0.00,,CLR,0.00,VWS V14.01,2013-03-30 05:43:00,
2013-03-30 01:45:00,34.6,26.2,30.24,WNW,302,0.0,0.0,71,0.00,,SCT032,0.00,VWS V14.01,2013-03-30 05:45:00,
2013-03-30 01:48:00,34.4,26.0,30.24,WNW,302,0.0,0.0,71,0.00,,CLR,0.00,VWS V14.01,2013-03-30 05:48:00,
2013-03-30 01:53:00,34.3,26.2,30.24,WNW,302,0.0,0.0,72,0.00,,CLR,0.00,VWS V14.01,2013-03-30 05:53:00,
2013-03-30 01:58:00,34.1,26.0,30.24,WNW,302,0.0,0.0,72,0.00,,CLR,0.00,VWS V14.01,2013-03-30 05:58:00,
2013-03-30 02:00:00,34.1,26.0,30.24,WNW,302,0.0,0.0,72,0.00,,OVC100,0.00,VWS V14.01,2013-03-30 06:00:00,
2013-03-30 02:03:00,34.0,25.9,30.24,WNW,302,0.0,0.0,72,0.00,,CLR,0.00,VWS V14.01,2013-03-30 06:03:00,
2013-03-30 02:08:00,33.8,26.1,30.24,WNW,302,0.0,0.0,73,0.00,,CLR,0.00,VWS V14.01,2013-03-30 06:08:00,
2013-03-30 02:13:00,33.7,26.0,30.24,WNW,302,0.0,0.0,73,0.00,,CLR,0.00,VWS V14.01,2013-03-30 06:13:00,
2013-03-30 02:15:00,33.7,26.0,30.24,WNW,302,0.0,0.0,73,0.00,,OVC100,0.00,VWS V14.01,2013-03-30 06:15:00,
2013-03-30 02:18:00,33.5,25.5,30.24,WNW,302,0.0,0.0,72,0.00,,CLR,0.00,VWS V14.01,2013-03-30 06:18:00,
2013-03-30 02:23:00,33.4,25.7,30.24,WNW,302,0.0,0.0,73,0.00,,CLR,0.00,VWS V14.01,2013-03-30 06:23:00,
2013-03-30 02:28:00,33.2,25.8,30.24,WNW,302,0.0,0.0,74,0.00,,CLR,0.00,VWS V14.01,2013-03-30 06:28:00,
2013-03-30 02:30:00,33.2,25.8,30.24,WNW,302,0.0,0.0,74,0.00,,OVC100,0.00,VWS V14.01,2013-03-30 06:30:00,
2013-03-30 02:33:00,33.2,25.8,30.24,WNW,302,0.0,0.0,74,0.00,,CLR,0.00,VWS V14.01,2013-03-30 06:33:00,
2013-03-30 02:38:00,33.1,25.7,30.24,WNW,302,0.0,0.0,74,0.00,,CLR,0.00,VWS V14.01,2013-03-30 06:38:00,
2013-03-30 02:43:00,32.9,25.5,30.24,WNW,302,0.0,0.0,74,0.00,,CLR,0.00,VWS V14.01,2013-03-30 06:43:00,
2013-03-30 02:45:00,32.8,25.4,30.24,WNW,302,0.0,0.0,74,0.00,,OVC100,0.00,VWS V14.01,2013-03-30 06:45:00,
2013-03-30 02:48:00,32.8,25.4,30.24,WNW,302,0.0,0.0,74,0.00,,CLR,0.00,VWS V14.01,2013-03-30 06:48:00,
2013-03-30 02:53:00,32.7,25.7,30.24,WNW,302,0.0,0.0,75,0.00,,CLR,0.00,VWS V14.01,2013-03-30 06:53:00,
2013-03-30 02:58:00,32.7,25.7,30.24,WNW,302,0.0,0.0,75,0.00,,CLR,0.00,VWS V14.01,2013-03-30 06:58:00,
2013-03-30 03:00:00,32.7,25.7,30.24,WNW,302,0.0,0.0,75,0.00,,OVC100,0.00,VWS V14.01,2013-03-30 07:00:00,
2013-03-30 03:03:00,32.5,25.1,30.24,WNW,302,0.0,0.0,74,0.00,,CLR,0.00,VWS V14.01,2013-03-30 07:03:00,
2013-03-30 03:08:00,32.2,25.2,30.24,WNW,302,0.0,0.0,75,0.00,,CLR,0.00,VWS V14.01,2013-03-30 07:08:00,
2013-03-30 03:13:00,32.2,25.2,30.24,WNW,302,0.0,0.0,75,0.00,,CLR,0.00,VWS V14.01,2013-03-30 07:13:00,
2013-03-30 03:15:00,32.2,25.2,30.24,WNW,302,0.0,0.0,75,0.00,,OVC100,0.00,VWS V14.01,2013-03-30 07:15:00,
2013-03-30 03:18:00,32.2,25.2,30.24,WNW,302,0.0,0.0,75,0.00,,CLR,0.00,VWS V14.01,2013-03-30 07:18:00,
2013-03-30 03:23:00,32.2,25.2,30.24,WNW,302,0.0,0.0,75,0.00,,CLR,0.00,VWS V14.01,2013-03-30 07:23:00,
2013-03-30 03:28:00,32.4,25.4,30.24,WNW,302,0.0,0.0,75,0.00,,CLR,0.00,VWS V14.01,2013-03-30 07:28:00,
2013-03-30 03:30:00,32.4,25.4,30.24,WNW,302,0.0,0.0,75,0.00,,OVC100,0.00,VWS V14.01,2013-03-30 07:30:00,
2013-03-30 03:33:00,32.4,25.4,30.24,WNW,302,0.0,0.0,75,0.00,,CLR,0.00,VWS V14.01,2013-03-30 07:33:00,
2013-03-30 03:38:00,32.2,24.9,30.24,WNW,302,0.0,0.0,74,0.00,,CLR,0.00,VWS V14.01,2013-03-30 07:38:00,
2013-03-30 03:43:00,32.1,25.1,30.24,WNW,302,0.0,0.0,75,0.00,,CLR,0.00,VWS V14.01,2013-03-30 07:43:00,
2013-03-30 03:45:00,31.9,24.9,30.24,WNW,302,0.0,0.0,75,0.00,,OVC100,0.00,VWS V14.01,2013-03-30 07:45:00,
2013-03-30 03:48:00,31.8,24.8,30.24,WNW,302,0.0,0.0,75,0.00,,CLR,0.00,VWS V14.01,2013-03-30 07:48:00,
2013-03-30 03:53:00,31.6,24.6,30.23,WNW,302,0.0,0.0,75,0.00,,CLR,0.00,VWS V14.01,2013-03-30 07:53:00,
2013-03-30 03:58:00,31.6,24.6,30.23,WNW,302,0.0,0.0,75,0.00,,CLR,0.00,VWS V14.01,2013-03-30 07:58:00,
2013-03-30 04:00:00,31.6,24.6,30.24,WNW,302,0.0,0.0,75,0.00,,OVC100,0.00,VWS V14.01,2013-03-30 08:00:00,
2013-03-30 04:03:00,31.6,24.6,30.24,WNW,302,0.0,0.0,75,0.00,,CLR,0.00,VWS V14.01,2013-03-30 08:03:00,
2013-03-30 04:08:00,31.3,24.3,30.24,WNW,302,0.0,0.0,75,0.00,,,0.00,VWS V14.01,2013-03-30 08:08:00,
2013-03-30 04:13:00,30.7,24.0,30.24,WNW,302,0.0,0.0,76,0.00,,,0.00,VWS V14.01,2013-03-30 08:13:00,
2013-03-30 04:15:00,30.6,24.3,30.24,WNW,302,0.0,0.0,77,0.00,,OVC100,0.00,VWS V14.01,2013-03-30 08:15:00,
2013-03-30 04:18:00,30.4,24.4,30.24,WNW,302,0.0,0.0,78,0.00,,,0.00,VWS V14.01,2013-03-30 08:18:00,
2013-03-30 04:23:00,30.3,24.3,30.24,WNW,302,0.0,0.0,78,0.00,,,0.00,VWS V14.01,2013-03-30 08:23:00,
2013-03-30 04:28:00,30.1,24.4,30.24,WNW,302,0.0,0.0,79,0.00,,,0.00,VWS V14.01,2013-03-30 08:28:00,
2013-03-30 04:30:00,30.0,24.3,30.24,WNW,302,0.0,0.0,79,0.00,,OVC100,0.00,VWS V14.01,2013-03-30 08:30:00,
2013-03-30 04:33:00,30.0,24.3,30.24,WNW,302,0.0,0.0,79,0.00,,,0.00,VWS V14.01,2013-03-30 08:33:00,
2013-03-30 04:38:00,29.8,24.1,30.24,WNW,302,0.0,0.0,79,0.00,,,0.00,VWS V14.01,2013-03-30 08:38:00,
2013-03-30 04:43:00,29.5,24.1,30.24,WNW,302,0.0,0.0,80,0.00,,,0.00,VWS V14.01,2013-03-30 08:43:00,
2013-03-30 04:45:00,29.5,24.1,30.24,WNW,302,0.0,0.0,80,0.00,,OVC100,0.00,VWS V14.01,2013-03-30 08:45:00,
2013-03-30 04:49:00,29.5,24.1,30.24,WNW,302,0.0,0.0,80,0.00,,,0.00,VWS V14.01,2013-03-30 08:49:00,
2013-03-30 04:54:00,29.4,24.0,30.24,WNW,302,0.0,0.0,80,0.00,,,0.00,VWS V14.01,2013-03-30 08:54:00,
2013-03-30 04:59:00,29.5,24.1,30.24,WNW,302,0.0,0.0,80,0.00,,,0.00,VWS V14.01,2013-03-30 08:59:00,
2013-03-30 05:00:00,29.5,24.1,30.24,WNW,302,0.0,0.0,80,0.00,,OVC100,0.00,VWS V14.01,2013-03-30 09:00:00,
2013-03-30 05:04:00,29.5,24.1,30.24,WNW,302,0.0,0.0,80,0.00,,,0.00,VWS V14.01,2013-03-30 09:04:00,
2013-03-30 05:09:00,29.7,24.3,30.24,WNW,302,0.0,0.0,80,0.00,,,0.00,VWS V14.01,2013-03-30 09:09:00,
2013-03-30 05:14:00,29.7,24.3,30.24,WNW,302,0.0,0.0,80,0.00,,,0.00,VWS V14.01,2013-03-30 09:14:00,
2013-03-30 05:15:00,29.7,24.3,30.24,WNW,302,0.0,0.0,80,0.00,,OVC100,0.00,VWS V14.01,2013-03-30 09:15:00,
2013-03-30 05:19:00,29.8,24.4,30.24,WNW,302,0.0,0.0,80,0.00,,,0.00,VWS V14.01,2013-03-30 09:19:00,
2013-03-30 05:24:00,29.5,23.8,30.24,WNW,302,0.0,0.0,79,0.00,,,0.00,VWS V14.01,2013-03-30 09:24:00,
2013-03-30 05:29:00,29.4,24.0,30.24,WNW,302,0.0,0.0,80,0.00,,,0.00,VWS V14.01,2013-03-30 09:29:00,
2013-03-30 05:30:00,29.4,24.0,30.24,WNW,302,0.0,0.0,80,0.00,,OVC100,0.00,VWS V14.01,2013-03-30 09:30:00,
2013-03-30 05:34:00,29.5,24.1,30.24,WNW,302,0.0,0.0,80,0.00,,,0.00,VWS V14.01,2013-03-30 09:34:00,
2013-03-30 05:39:00,29.7,24.0,30.24,WNW,302,0.0,0.0,79,0.00,,,0.00,VWS V14.01,2013-03-30 09:39:00,
2013-03-30 05:44:00,29.5,23.8,30.24,WNW,302,0.0,0.0,79,0.00,,,0.00,VWS V14.01,2013-03-30 09:44:00,
2013-03-30 05:45:00,29.5,23.8,30.24,WNW,302,0.0,0.0,79,0.00,,OVC100,0.00,VWS V14.01,2013-03-30 09:45:00,
2013-03-30 05:49:00,29.7,24.0,30.24,WNW,302,0.0,0.0,79,0.00,,,0.00,VWS V14.01,2013-03-30 09:49:00,
2013-03-30 05:54:00,29.8,24.1,30.24,WNW,302,0.0,0.0,79,0.00,,,0.00,VWS V14.01,2013-03-30 09:54:00,
2013-03-30 05:59:00,29.5,23.8,30.24,WNW,302,0.0,0.0,79,0.00,,,0.00,VWS V14.01,2013-03-30 09:59:00,
2013-03-30 06:00:00,29.4,23.7,30.24,WNW,302,0.0,0.0,79,0.00,,OVC100,0.00,VWS V14.01,2013-03-30 10:00:00,
2013-03-30 06:04:00,29.4,24.0,30.24,WNW,302,0.0,0.0,80,0.00,,,0.00,VWS V14.01,2013-03-30 10:04:00,
2013-03-30 06:09:00,29.3,23.6,30.24,WNW,302,0.0,0.0,79,0.00,,,0.00,VWS V14.01,2013-03-30 10:09:00,
2013-03-30 06:14:00,29.3,23.9,30.24,WNW,302,0.0,0.0,80,0.00,,,0.00,VWS V14.01,2013-03-30 10:14:00,
2013-03-30 06:15:00,29.3,23.9,30.24,WNW,302,0.0,0.0,80,0.00,,OVC100,0.00,VWS V14.01,2013-03-30 10:15:00,
2013-03-30 06:19:00,29.4,24.0,30.24,WNW,302,0.0,0.0,80,0.00,,,0.00,VWS V14.01,2013-03-30 10:19:00,
2013-03-30 06:24:00,29.3,23.6,30.24,WNW,302,0.0,0.0,79,0.00,,,0.00,VWS V14.01,2013-03-30 10:24:00,
2013-03-30 06:29:00,29.3,23.6,30.24,WNW,302,0.0,0.0,79,0.00,,,0.00,VWS V14.01,2013-03-30 10:29:00,
2013-03-30 06:30:00,29.3,23.6,30.24,WNW,302,0.0,0.0,79,0.00,,OVC100,0.00,VWS V14.01,2013-03-30 10:30:00,
2013-03-30 06:34:00,29.4,23.7,30.24,WNW,302,0.0,0.0,79,0.00,,,0.00,VWS V14.01,2013-03-30 10:34:00,
2013-03-30 06:39:00,29.3,23.3,30.25,WNW,302,0.0,0.0,78,0.00,,,0.00,VWS V14.01,2013-03-30 10:39:00,
2013-03-30 06:44:00,28.8,22.8,30.25,WNW,302,0.0,0.0,78,0.00,,,0.00,VWS V14.01,2013-03-30 10:44:00,
2013-03-30 06:45:00,28.8,22.8,30.25,WNW,302,0.0,0.0,78,0.00,,OVC100,0.00,VWS V14.01,2013-03-30 10:45:00,
2013-03-30 06:49:00,28.7,22.7,30.25,WNW,302,0.0,0.0,78,0.00,,,0.00,VWS V14.01,2013-03-30 10:49:00,
2013-03-30 06:54:00,28.5,22.8,30.25,WNW,302,0.0,0.0,79,0.00,,,0.00,VWS V14.01,2013-03-30 10:54:00,
2013-03-30 06:59:00,28.4,22.7,30.25,WNW,302,0.0,0.0,79,0.00,,,0.00,VWS V14.01,2013-03-30 10:59:00,
2013-03-30 07:00:00,28.4,22.7,30.25,WNW,302,0.0,0.0,79,0.00,,OVC100,0.00,VWS V14.01,2013-03-30 11:00:00,
2013-03-30 07:04:00,28.2,22.5,30.25,WNW,302,0.0,0.0,79,0.00,,,0.00,VWS V14.01,2013-03-30 11:04:00,
2013-03-30 07:09:00,28.1,22.7,30.25,WNW,302,0.0,0.0,80,0.00,,,0.00,VWS V14.01,2013-03-30 11:09:00,
2013-03-30 07:14:00,28.2,22.8,30.26,WNW,302,0.0,0.0,80,0.00,,,0.00,VWS V14.01,2013-03-30 11:14:00,
2013-03-30 07:15:00,28.2,22.8,30.26,WNW,302,0.0,0.0,80,0.00,,OVC100,0.00,VWS V14.01,2013-03-30 11:15:00,
2013-03-30 07:20:00,28.1,22.7,30.26,WNW,302,0.0,0.0,80,0.00,,,0.00,VWS V14.01,2013-03-30 11:20:00,
2013-03-30 07:25:00,27.9,22.5,30.26,WNW,302,0.0,0.0,80,0.00,,,0.00,VWS V14.01,2013-03-30 11:25:00,
2013-03-30 07:30:00,27.8,22.4,30.26,WNW,302,0.0,0.0,80,0.00,,,0.00,VWS V14.01,2013-03-30 11:30:00,
2013-03-30 07:35:00,27.8,22.4,30.27,WNW,302,0.0,0.0,80,0.00,,,0.00,VWS V14.01,2013-03-30 11:35:00,
2013-03-30 07:40:00,27.9,22.8,30.27,WNW,302,0.0,0.0,81,0.00,,,0.00,VWS V14.01,2013-03-30 11:40:00,
2013-03-30 07:45:00,28.2,23.1,30.27,WNW,302,0.0,0.0,81,0.00,,,0.00,VWS V14.01,2013-03-30 11:45:00,
2013-03-30 07:50:00,28.5,23.4,30.27,WNW,302,0.0,0.0,81,0.00,,,0.00,VWS V14.01,2013-03-30 11:50:00,
2013-03-30 07:55:00,28.7,23.3,30.27,WNW,302,0.0,0.0,80,0.00,,,0.00,VWS V14.01,2013-03-30 11:55:00,
2013-03-30 08:00:00,28.8,23.7,30.27,WNW,302,0.0,0.0,81,0.00,,,0.00,VWS V14.01,2013-03-30 12:00:00,
2013-03-30 08:05:00,29.3,24.5,30.28,WNW,302,0.0,0.0,82,0.00,,,0.00,VWS V14.01,2013-03-30 12:05:00,
2013-03-30 08:10:00,29.7,24.6,30.28,WNW,302,0.0,0.0,81,0.00,,,0.00,VWS V14.01,2013-03-30 12:10:00,
2013-03-30 08:15:00,30.1,24.7,30.28,WNW,302,0.0,0.0,80,0.00,,,0.00,VWS V14.01,2013-03-30 12:15:00,
2013-03-30 08:20:00,30.9,25.5,30.28,WNW,302,0.0,0.0,80,0.00,,,0.00,VWS V14.01,2013-03-30 12:20:00,
2013-03-30 08:25:00,31.9,26.4,30.28,WNW,302,0.0,0.0,80,0.00,,,0.00,VWS V14.01,2013-03-30 12:25:00,
2013-03-30 08:30:00,33.1,26.7,30.28,WNW,302,0.0,0.0,77,0.00,,,0.00,VWS V14.01,2013-03-30 12:30:00,
2013-03-30 08:35:00,34.4,27.6,30.28,WNW,302,0.0,0.0,76,0.00,,,0.00,VWS V14.01,2013-03-30 12:35:00,
2013-03-30 08:40:00,35.8,28.0,30.28,WNW,302,0.0,0.0,73,0.00,,,0.00,VWS V14.01,2013-03-30 12:40:00,
2013-03-30 08:45:00,36.5,28.0,30.28,WNW,302,0.0,0.0,71,0.00,,,0.00,VWS V14.01,2013-03-30 12:45:00,
2013-03-30 08:50:00,36.6,28.1,30.27,WNW,302,0.0,0.0,71,0.00,,,0.00,VWS V14.01,2013-03-30 12:50:00,
2013-03-30 08:55:00,36.8,28.6,30.27,WNW,302,0.0,0.0,72,0.00,,,0.00,VWS V14.01,2013-03-30 12:55:00,
2013-03-30 09:00:00,37.0,28.8,30.27,WNW,302,0.0,0.0,72,0.00,,,0.00,VWS V14.01,2013-03-30 13:00:00,
2013-03-30 09:05:00,37.6,29.1,30.28,WNW,302,0.0,0.0,71,0.00,,,0.00,VWS V14.01,2013-03-30 13:05:00,
2013-03-30 09:10:00,38.3,29.7,30.28,WNW,302,0.0,0.0,71,0.00,,,0.00,VWS V14.01,2013-03-30 13:10:00,
2013-03-30 09:15:00,39.3,30.4,30.27,WNW,302,0.0,0.0,70,0.00,,,0.00,VWS V14.01,2013-03-30 13:15:00,
2013-03-30 09:20:00,40.2,30.1,30.27,WNW,302,0.0,0.0,67,0.00,,,0.00,VWS V14.01,2013-03-30 13:20:00,
2013-03-30 09:25:00,41.1,29.9,30.26,WNW,302,0.0,0.0,64,0.00,,,0.00,VWS V14.01,2013-03-30 13:25:00,
2013-03-30 09:30:00,42.1,30.8,30.26,WNW,302,0.0,0.0,64,0.00,,,0.00,VWS V14.01,2013-03-30 13:30:00,
2013-03-30 09:35:00,42.8,31.1,30.26,WNW,302,0.0,0.0,63,0.00,,,0.00,VWS V14.01,2013-03-30 13:35:00,
2013-03-30 09:40:00,43.6,31.5,30.26,WNW,302,0.0,0.0,62,0.00,,,0.00,VWS V14.01,2013-03-30 13:40:00,
2013-03-30 09:45:00,44.6,32.0,30.26,WNW,302,0.0,0.0,61,0.00,,,0.00,VWS V14.01,2013-03-30 13:45:00,
2013-03-30 09:50:00,45.2,31.7,30.25,SW,229,0.0,0.0,59,0.00,,,0.00,VWS V14.01,2013-03-30 13:50:00,
2013-03-30 09:55:00,45.8,31.9,30.26,SW,229,0.0,1.0,58,0.00,,,0.00,VWS V14.01,2013-03-30 13:55:00,
2013-03-30 10:00:00,46.8,32.4,30.25,SW,224,0.0,1.0,57,0.00,,,0.00,VWS V14.01,2013-03-30 14:00:00,
2013-03-30 10:05:00,47.4,32.1,30.25,SSW,212,0.0,0.0,55,0.00,,CLR,0.00,VWS V14.01,2013-03-30 14:05:00,
2013-03-30 10:10:00,47.9,31.1,30.25,SSW,202,0.0,0.0,52,0.00,,CLR,0.00,VWS V14.01,2013-03-30 14:10:00,
2013-03-30 10:15:00,48.5,33.1,30.25,SSW,202,0.0,0.0,55,0.00,,CLR,0.00,VWS V14.01,2013-03-30 14:15:00,
2013-03-30 10:20:00,48.8,31.0,30.24,SSW,202,0.0,6.0,50,0.00,,CLR,0.00,VWS V14.01,2013-03-30 14:20:00,
2013-03-30 10:26:00,49.4,31.1,30.24,SSE,165,0.0,3.0,49,0.00,,CLR,0.00,VWS V14.01,2013-03-30 14:26:00,
2013-03-30 10:30:00,49.8,31.9,30.24,SSW,196,0.0,7.0,50,0.00,,OVC100,0.00,VWS V14.01,2013-03-30 14:30:00,
2013-03-30 10:31:00,49.9,31.5,30.24,SSW,196,1.0,7.0,49,0.00,,CLR,0.00,VWS V14.01,2013-03-30 14:31:00,
2013-03-30 10:36:00,50.2,31.3,30.23,South,174,0.0,1.0,48,0.00,,CLR,0.00,VWS V14.01,2013-03-30 14:36:00,
2013-03-30 10:42:00,50.5,30.5,30.23,South,186,0.0,2.0,46,0.00,,CLR,0.00,VWS V14.01,2013-03-30 14:42:00,
2013-03-30 10:45:00,50.5,28.9,30.23,South,186,0.0,2.0,43,0.00,,OVC100,0.00,VWS V14.01,2013-03-30 14:45:00,
2013-03-30 10:47:00,50.5,28.9,30.23,South,186,0.0,0.0,43,0.00,,CLR,0.00,VWS V14.01,2013-03-30 14:47:00,
2013-03-30 10:52:00,51.0,28.7,30.23,South,186,0.0,0.0,42,0.00,,CLR,0.00,VWS V14.01,2013-03-30 14:52:00,
2013-03-30 10:57:00,51.1,25.8,30.22,ESE,113,0.0,0.0,37,0.00,,CLR,0.00,VWS V14.01,2013-03-30 14:57:00,
2013-03-30 11:00:00,51.4,27.9,30.22,SSW,195,5.0,6.0,40,0.00,,OVC100,0.00,VWS V14.01,2013-03-30 15:00:00,
2013-03-30 11:02:00,51.4,26.7,30.22,SSW,202,0.0,6.0,38,0.00,,CLR,0.00,VWS V14.01,2013-03-30 15:02:00,
2013-03-30 11:07:00,51.7,25.6,30.22,ESE,109,0.0,6.0,36,0.00,,CLR,0.00,VWS V14.01,2013-03-30 15:07:00,
2013-03-30 11:12:00,52.0,25.2,30.22,ESE,109,0.0,0.0,35,0.00,,CLR,0.00,VWS V14.01,2013-03-30 15:12:00,
2013-03-30 11:15:00,51.9,23.7,30.22,East,96,0.0,3.0,33,0.00,,OVC100,0.00,VWS V14.01,2013-03-30 15:15:00,
2013-03-30 11:17:00,51.9,23.7,30.22,East,97,0.0,3.0,33,0.00,,CLR,0.00,VWS V14.01,2013-03-30 15:17:00,
2013-03-30 11:22:00,52.0,23.8,30.22,East,82,0.0,3.0,33,0.00,,CLR,0.00,VWS V14.01,2013-03-30 15:22:00,
2013-03-30 11:27:00,52.5,24.2,30.22,SSW,200,0.0,3.0,33,0.00,,CLR,0.00,VWS V14.01,2013-03-30 15:27:00,
2013-03-30 11:30:00,52.8,23.8,30.23,SSW,200,0.0,3.0,32,0.00,,OVC100,0.00,VWS V14.01,2013-03-30 15:30:00,
2013-03-30 11:32:00,52.9,25.3,30.23,SSW,199,0.0,3.0,34,0.00,,CLR,0.00,VWS V14.01,2013-03-30 15:32:00,
2013-03-30 11:37:00,52.8,25.2,30.23,SE,126,0.0,1.0,34,0.00,,CLR,0.00,VWS V14.01,2013-03-30 15:37:00,
2013-03-30 11:42:00,52.9,24.6,30.23,SSE,161,0.0,6.0,33,0.00,,CLR,0.00,VWS V14.01,2013-03-30 15:42:00,
2013-03-30 11:45:00,53.1,27.5,30.23,SSE,161,0.0,6.0,37,0.00,,OVC100,0.00,VWS V14.01,2013-03-30 15:45:00,
2013-03-30 11:47:00,53.3,26.4,30.23,SW,217,3.0,6.0,35,0.00,,CLR,0.00,VWS V14.01,2013-03-30 15:47:00,
2013-03-30 11:52:00,53.8,26.1,30.22,NNW,339,1.0,5.0,34,0.00,,CLR,0.00,VWS V14.01,2013-03-30 15:52:00,
2013-03-30 11:57:00,54.2,26.5,30.22,WNW,282,0.0,5.0,34,0.00,,CLR,0.00,VWS V14.01,2013-03-30 15:57:00,
2013-03-30 12:00:00,54.5,23.7,30.22,West,281,2.0,5.0,30,0.00,,OVC100,0.00,VWS V14.01,2013-03-30 16:00:00,
2013-03-30 12:02:00,54.7,25.4,30.22,SSW,199,1.0,7.0,32,0.00,,CLR,0.00,VWS V14.01,2013-03-30 16:02:00,
2013-03-30 12:07:00,54.4,27.3,30.23,ESE,104,0.0,7.0,35,0.00,,CLR,0.00,VWS V14.01,2013-03-30 16:07:00,
2013-03-30 12:12:00,54.1,24.2,30.23,East,83,0.0,3.0,31,0.00,,CLR,0.00,VWS V14.01,2013-03-30 16:12:00,
2013-03-30 12:15:00,53.9,25.5,30.24,WSW,240,5.0,5.0,33,0.00,,OVC100,0.00,VWS V14.01,2013-03-30 16:15:00,
2013-03-30 12:17:00,53.9,26.2,30.24,WSW,251,0.0,5.0,34,0.00,,CLR,0.00,VWS V14.01,2013-03-30 16:17:00,
2013-03-30 12:22:00,54.1,26.4,30.24,South,191,0.0,6.0,34,0.00,,CLR,0.00,VWS V14.01,2013-03-30 16:22:00,
2013-03-30 12:28:00,53.6,22.9,30.23,SSE,152,0.0,6.0,30,0.00,,CLR,0.00,VWS V14.01,2013-03-30 16:28:00,
2013-03-30 12:30:00,53.5,25.8,30.22,ESE,123,0.0,3.0,34,0.00,,OVC100,0.00,VWS V14.01,2013-03-30 16:30:00,
2013-03-30 12:33:00,53.6,24.5,30.22,ESE,113,0.0,0.0,32,0.00,,CLR,0.00,VWS V14.01,2013-03-30 16:33:00,
2013-03-30 12:38:00,54.1,25.6,30.22,East,97,0.0,0.0,33,0.00,,CLR,0.00,VWS V14.01,2013-03-30 16:38:00,
2013-03-30 12:43:00,54.2,25.0,30.22,East,97,0.0,0.0,32,0.00,,CLR,0.00,VWS V14.01,2013-03-30 16:43:00,
2013-03-30 12:45:00,54.4,27.3,30.21,East,97,0.0,0.0,35,0.00,,OVC100,0.00,VWS V14.01,2013-03-30 16:45:00,
2013-03-30 12:48:00,54.8,28.4,30.21,East,97,0.0,0.0,36,0.00,,CLR,0.00,VWS V14.01,2013-03-30 16:48:00,
2013-03-30 12:53:00,55.3,26.7,30.20,East,99,0.0,0.0,33,0.00,,CLR,0.00,VWS V14.01,2013-03-30 16:53:00,
2013-03-30 12:58:00,55.6,28.4,30.20,WSW,243,1.0,3.0,35,0.00,,CLR,0.00,VWS V14.01,2013-03-30 16:58:00,
2013-03-30 13:00:00,55.9,29.4,30.20,WSW,239,0.0,3.0,36,0.00,,OVC100,0.00,VWS V14.01,2013-03-30 17:00:00,
2013-03-30 13:03:00,56.3,28.3,30.20,WNW,294,0.0,3.0,34,0.00,,CLR,0.00,VWS V14.01,2013-03-30 17:03:00,
2013-03-30 13:08:00,57.2,30.5,30.19,WSW,239,3.0,6.0,36,0.00,,CLR,0.00,VWS V14.01,2013-03-30 17:08:00,
2013-03-30 13:13:00,56.7,25.6,30.19,SW,226,0.0,6.0,30,0.00,,CLR,0.00,VWS V14.01,2013-03-30 17:13:00,
2013-03-30 13:15:00,56.6,24.7,30.19,SW,226,0.0,6.0,29,0.00,,OVC100,0.00,VWS V14.01,2013-03-30 17:15:00,
2013-03-30 13:18:00,56.5,27.0,30.19,WNW,289,0.0,3.0,32,0.00,,CLR,0.00,VWS V14.01,2013-03-30 17:18:00,
2013-03-30 13:23:00,56.9,27.4,30.18,West,270,0.0,4.0,32,0.00,,CLR,0.00,VWS V14.01,2013-03-30 17:23:00,
2013-03-30 13:28:00,56.9,30.9,30.18,WNW,292,0.0,4.0,37,0.00,,CLR,0.00,VWS V14.01,2013-03-30 17:28:00,
2013-03-30 13:30:00,56.7,30.7,30.18,NNW,337,0.0,5.0,37,0.00,,OVC100,0.00,VWS V14.01,2013-03-30 17:30:00,
2013-03-30 13:33:00,57.2,29.8,30.18,NNW,340,0.0,5.0,35,0.00,,CLR,0.00,VWS V14.01,2013-03-30 17:33:00,
2013-03-30 13:38:00,57.5,29.4,30.17,NNE,23,0.0,5.0,34,0.00,,CLR,0.00,VWS V14.01,2013-03-30 17:38:00,
2013-03-30 13:43:00,57.5,27.1,30.17,NNE,25,0.0,5.0,31,0.00,,CLR,0.00,VWS V14.01,2013-03-30 17:43:00,
2013-03-30 13:45:00,57.3,27.0,30.17,North,8,0.0,5.0,31,0.00,,OVC100,0.00,VWS V14.01,2013-03-30 17:45:00,
2013-03-30 13:48:00,57.0,27.5,30.17,NW,312,0.0,5.0,32,0.00,,CLR,0.00,VWS V14.01,2013-03-30 17:48:00,
2013-03-30 13:53:00,57.5,27.1,30.17,NNE,28,0.0,5.0,31,0.00,,CLR,0.00,VWS V14.01,2013-03-30 17:53:00,
2013-03-30 13:58:00,57.6,28.0,30.17,ENE,65,3.0,6.0,32,0.00,,CLR,0.00,VWS V14.01,2013-03-30 17:58:00,
2013-03-30 14:00:00,57.6,30.2,30.17,NE,56,0.0,6.0,35,0.00,,OVC100,0.00,VWS V14.01,2013-03-30 18:00:00,
2013-03-30 14:03:00,57.8,26.6,30.17,NNE,20,0.0,6.0,30,0.00,,CLR,0.00,VWS V14.01,2013-03-30 18:03:00,
2013-03-30 14:08:00,58.1,27.6,30.16,ENE,66,0.0,2.0,31,0.00,,CLR,0.00,VWS V14.01,2013-03-30 18:08:00,
2013-03-30 14:13:00,57.5,27.1,30.16,North,0,1.0,2.0,31,0.00,,CLR,0.00,VWS V14.01,2013-03-30 18:13:00,
2013-03-30 14:15:00,57.2,27.6,30.16,NNW,347,0.0,2.0,32,0.00,,OVC100,0.00,VWS V14.01,2013-03-30 18:15:00,
2013-03-30 14:18:00,57.3,27.7,30.16,WNW,284,0.0,5.0,32,0.00,,CLR,0.00,VWS V14.01,2013-03-30 18:18:00,
2013-03-30 14:23:00,57.5,25.5,30.16,NNW,328,0.0,7.0,29,0.00,,CLR,0.00,VWS V14.01,2013-03-30 18:23:00,
2013-03-30 14:28:00,58.1,26.0,30.15,North,8,0.0,4.0,29,0.00,,CLR,0.00,VWS V14.01,2013-03-30 18:28:00,
2013-03-30 14:30:00,58.3,24.5,30.15,North,8,0.0,4.0,27,0.00,,OVC100,0.00,VWS V14.01,2013-03-30 18:30:00,
2013-03-30 14:33:00,58.1,24.3,30.15,NNE,30,0.0,4.0,27,0.00,,CLR,0.00,VWS V14.01,2013-03-30 18:33:00,
2013-03-30 14:38:00,57.8,24.9,30.15,NNE,14,0.0,2.0,28,0.00,,CLR,0.00,VWS V14.01,2013-03-30 18:38:00,
2013-03-30 14:43:00,57.6,24.8,30.15,NNE,31,0.0,5.0,28,0.00,,CLR,0.00,VWS V14.01,2013-03-30 18:43:00,
2013-03-30 14:45:00,57.8,24.9,30.15,NNE,31,0.0,5.0,28,0.00,,OVC100,0.00,VWS V14.01,2013-03-30 18:45:00,
2013-03-30 14:48:00,57.6,24.8,30.15,SE,126,0.0,6.0,28,0.00,,CLR,0.00,VWS V14.01,2013-03-30 18:48:00,
2013-03-30 14:53:00,57.0,24.2,30.14,East,90,2.0,6.0,28,0.00,,CLR,0.00,VWS V14.01,2013-03-30 18:53:00,
2013-03-30 14:58:00,56.7,25.6,30.14,ENE,78,0.0,3.0,30,0.00,,CLR,0.00,VWS V14.01,2013-03-30 18:58:00,
2013-03-30 15:00:00,56.9,25.0,30.14,ENE,78,0.0,3.0,29,0.00,,OVC100,0.00,VWS V14.01,2013-03-30 19:00:00,
2013-03-30 15:03:00,57.2,23.5,30.14,NNE,21,0.0,6.0,27,0.00,,CLR,0.00,VWS V14.01,2013-03-30 19:03:00,
2013-03-30 15:09:00,58.3,25.4,30.13,NNE,18,0.0,6.0,28,0.00,,CLR,0.00,VWS V14.01,2013-03-30 19:09:00,
2013-03-30 15:14:00,59.0,29.2,30.13,NNE,28,0.0,5.0,32,0.00,,CLR,0.00,VWS V14.01,2013-03-30 19:14:00,
2013-03-30 15:15:00,59.2,25.3,30.13,NNE,21,0.0,5.0,27,0.00,,OVC100,0.00,VWS V14.01,2013-03-30 19:15:00,
2013-03-30 15:19:00,59.2,25.3,30.13,SE,145,0.0,8.0,27,0.00,,CLR,0.00,VWS V14.01,2013-03-30 19:19:00,
2013-03-30 15:24:00,58.9,25.9,30.13,SW,233,1.0,8.0,28,0.00,,CLR,0.00,VWS V14.01,2013-03-30 19:24:00,
2013-03-30 15:29:00,58.9,26.7,30.12,West,261,0.0,8.0,29,0.00,,CLR,0.00,VWS V14.01,2013-03-30 19:29:00,
2013-03-30 15:30:00,58.9,25.0,30.12,West,261,0.0,8.0,27,0.00,,OVC100,0.00,VWS V14.01,2013-03-30 19:30:00,
2013-03-30 15:34:00,59.0,24.2,30.12,NNW,342,0.0,5.0,26,0.00,,CLR,0.00,VWS V14.01,2013-03-30 19:34:00,
2013-03-30 15:39:00,59.0,26.0,30.12,South,184,0.0,8.0,28,0.00,,CLR,0.00,VWS V14.01,2013-03-30 19:39:00,
2013-03-30 15:44:00,58.7,24.8,30.12,SSW,200,1.0,8.0,27,0.00,,CLR,0.00,VWS V14.01,2013-03-30 19:44:00,
2013-03-30 15:45:00,58.7,23.9,30.12,SSW,202,1.0,8.0,26,0.00,,OVC100,0.00,VWS V14.01,2013-03-30 19:45:00,
2013-03-30 15:49:00,58.9,25.9,30.12,West,277,0.0,8.0,28,0.00,,CLR,0.00,VWS V14.01,2013-03-30 19:49:00,
2013-03-30 15:54:00,59.2,23.4,30.12,WSW,256,1.0,11.0,25,0.00,,CLR,0.00,VWS V14.01,2013-03-30 19:54:00,
2013-03-30 15:59:00,58.3,24.5,30.12,NNW,340,0.0,11.0,27,0.00,,CLR,0.00,VWS V14.01,2013-03-30 19:59:00,
2013-03-30 16:00:00,58.3,25.4,30.11,NNW,340,0.0,7.0,28,0.00,,OVC100,0.00,VWS V14.01,2013-03-30 20:00:00,
2013-03-30 16:04:00,58.7,24.8,30.11,NW,326,0.0,7.0,27,0.00,,CLR,0.00,VWS V14.01,2013-03-30 20:04:00,
2013-03-30 16:09:00,59.6,26.5,30.11,WNW,285,0.0,5.0,28,0.00,,CLR,0.00,VWS V14.01,2013-03-30 20:09:00,
2013-03-30 16:14:00,59.5,24.6,30.11,NW,316,0.0,6.0,26,0.00,,CLR,0.00,VWS V14.01,2013-03-30 20:14:00,
2013-03-30 16:15:00,59.6,26.5,30.11,NW,306,0.0,6.0,28,0.00,,OVC100,0.00,VWS V14.01,2013-03-30 20:15:00,
2013-03-30 16:19:00,59.5,24.6,30.11,SW,236,0.0,5.0,26,0.00,,CLR,0.00,VWS V14.01,2013-03-30 20:19:00,
2013-03-30 16:24:00,59.5,24.6,30.11,WSW,239,0.0,5.0,26,0.00,,CLR,0.00,VWS V14.01,2013-03-30 20:24:00,
2013-03-30 16:29:00,59.6,23.8,30.10,WSW,239,0.0,1.0,25,0.00,,CLR,0.00,VWS V14.01,2013-03-30 20:29:00,
2013-03-30 16:30:00,59.5,22.7,30.10,WSW,239,0.0,1.0,24,0.00,,OVC100,0.00,VWS V14.01,2013-03-30 20:30:00,
2013-03-30 16:34:00,59.6,25.6,30.10,West,271,0.0,1.0,27,0.00,,CLR,0.00,VWS V14.01,2013-03-30 20:34:00,
2013-03-30 16:39:00,59.8,23.9,30.10,West,260,0.0,0.0,25,0.00,,CLR,0.00,VWS V14.01,2013-03-30 20:39:00,
2013-03-30 16:44:00,59.3,23.5,30.10,WSW,241,0.0,0.0,25,0.00,,CLR,0.00,VWS V14.01,2013-03-30 20:44:00,
2013-03-30 16:45:00,59.3,23.5,30.10,WSW,241,0.0,0.0,25,0.00,,OVC100,0.00,VWS V14.01,2013-03-30 20:45:00,
2013-03-30 16:49:00,59.3,24.4,30.10,WSW,239,0.0,0.0,26,0.00,,CLR,0.00,VWS V14.01,2013-03-30 20:49:00,
2013-03-30 16:54:00,59.3,23.5,30.09,SSE,157,0.0,0.0,25,0.00,,CLR,0.00,VWS V14.01,2013-03-30 20:54:00,
2013-03-30 16:59:00,59.6,24.7,30.09,ESE,121,0.0,0.0,26,0.00,,CLR,0.00,VWS V14.01,2013-03-30 20:59:00,
2013-03-30 17:00:00,59.6,24.7,30.09,ESE,121,0.0,0.0,26,0.00,,OVC100,0.00,VWS V14.01,2013-03-30 21:00:00,
2013-03-30 17:04:00,60.1,25.1,30.09,West,274,0.0,3.0,26,0.00,,CLR,0.00,VWS V14.01,2013-03-30 21:04:00,
2013-03-30 17:09:00,60.2,24.3,30.09,West,272,0.0,3.0,25,0.00,,CLR,0.00,VWS V14.01,2013-03-30 21:09:00,
2013-03-30 17:14:00,60.1,25.1,30.08,WSW,254,0.0,1.0,26,0.00,,CLR,0.00,VWS V14.01,2013-03-30 21:14:00,
2013-03-30 17:15:00,60.1,25.1,30.08,WSW,253,0.0,1.0,26,0.00,,OVC100,0.00,VWS V14.01,2013-03-30 21:15:00,
2013-03-30 17:19:00,59.9,25.0,30.08,NNW,329,0.0,2.0,26,0.00,,CLR,0.00,VWS V14.01,2013-03-30 21:19:00,
2013-03-30 17:24:00,59.8,24.9,30.08,NNW,329,0.0,2.0,26,0.00,,CLR,0.00,VWS V14.01,2013-03-30 21:24:00,
2013-03-30 17:29:00,59.3,24.4,30.08,NNW,329,0.0,0.0,26,0.00,,CLR,0.00,VWS V14.01,2013-03-30 21:29:00,
2013-03-30 17:30:00,59.3,24.4,30.08,NNW,329,0.0,0.0,26,0.00,,OVC100,0.00,VWS V14.01,2013-03-30 21:30:00,
2013-03-30 17:34:00,59.3,25.4,30.08,NNW,329,0.0,0.0,27,0.00,,CLR,0.00,VWS V14.01,2013-03-30 21:34:00,
2013-03-30 17:39:00,59.5,25.5,30.08,NNW,329,0.0,0.0,27,0.00,,CLR,0.00,VWS V14.01,2013-03-30 21:39:00,
2013-03-30 17:45:00,59.2,25.3,30.08,North,359,0.0,1.0,27,0.00,,CLR,0.00,VWS V14.01,2013-03-30 21:45:00,
2013-03-30 17:50:00,58.9,26.7,30.08,NNE,23,0.0,3.0,29,0.00,,CLR,0.00,VWS V14.01,2013-03-30 21:50:00,
2013-03-30 17:55:00,58.7,28.2,30.08,NE,56,0.0,2.0,31,0.00,,CLR,0.00,VWS V14.01,2013-03-30 21:55:00,
2013-03-30 18:00:00,58.6,27.3,30.08,NNE,13,0.0,2.0,30,0.00,,CLR,0.00,VWS V14.01,2013-03-30 22:00:00,
2013-03-30 18:05:00,58.4,26.3,30.08,NNE,13,0.0,0.0,29,0.00,,CLR,0.00,VWS V14.01,2013-03-30 22:05:00,
2013-03-30 18:10:00,58.1,26.0,30.08,North,11,0.0,2.0,29,0.00,,CLR,0.00,VWS V14.01,2013-03-30 22:10:00,
2013-03-30 18:15:00,58.0,25.1,30.08,North,11,0.0,0.0,28,0.00,,CLR,0.00,VWS V14.01,2013-03-30 22:15:00,
2013-03-30 18:20:00,58.0,26.8,30.08,NE,38,0.0,0.0,30,0.00,,CLR,0.00,VWS V14.01,2013-03-30 22:20:00,
2013-03-30 18:25:00,58.1,26.0,30.07,NE,38,0.0,0.0,29,0.00,,CLR,0.00,VWS V14.01,2013-03-30 22:25:00,
2013-03-30 18:30:00,58.1,27.6,30.07,NE,34,0.0,0.0,31,0.00,,CLR,0.00,VWS V14.01,2013-03-30 22:30:00,
2013-03-30 18:35:00,58.3,27.8,30.07,NE,34,0.0,0.0,31,0.00,,CLR,0.00,VWS V14.01,2013-03-30 22:35:00,
2013-03-30 18:40:00,58.1,26.0,30.07,NNE,32,0.0,0.0,29,0.00,,CLR,0.00,VWS V14.01,2013-03-30 22:40:00,
2013-03-30 18:45:00,58.0,26.0,30.07,NNE,32,0.0,0.0,29,0.00,,CLR,0.00,VWS V14.01,2013-03-30 22:45:00,
2013-03-30 18:50:00,57.8,26.6,30.07,NNE,32,0.0,0.0,30,0.00,,CLR,0.00,VWS V14.01,2013-03-30 22:50:00,
2013-03-30 18:55:00,57.3,25.3,30.07,NNE,32,0.0,0.0,29,0.00,,CLR,0.00,VWS V14.01,2013-03-30 22:55:00,
2013-03-30 19:00:00,56.9,25.8,30.07,NNE,32,0.0,0.0,30,0.00,,CLR,0.00,VWS V14.01,2013-03-30 23:00:00,
2013-03-30 19:05:00,56.7,25.6,30.07,NNE,32,0.0,0.0,30,0.00,,CLR,0.00,VWS V14.01,2013-03-30 23:05:00,
2013-03-30 19:10:00,56.6,26.3,30.07,NNE,32,0.0,0.0,31,0.00,,CLR,0.00,VWS V14.01,2013-03-30 23:10:00,
2013-03-30 19:15:00,56.5,25.5,30.07,NNE,32,0.0,0.0,30,0.00,,CLR,0.00,VWS V14.01,2013-03-30 23:15:00,
2013-03-30 19:20:00,56.2,24.4,30.07,NNE,32,0.0,0.0,29,0.00,,CLR,0.00,VWS V14.01,2013-03-30 23:20:00,
2013-03-30 19:25:00,56.0,25.0,30.07,NNE,32,0.0,0.0,30,0.00,,CLR,0.00,VWS V14.01,2013-03-30 23:25:00,
2013-03-30 19:30:00,55.7,25.5,30.06,NNE,32,0.0,0.0,31,0.00,,CLR,0.00,VWS V14.01,2013-03-30 23:30:00,
2013-03-30 19:35:00,55.3,26.0,30.06,NNE,32,0.0,0.0,32,0.00,,CLR,0.00,VWS V14.01,2013-03-30 23:35:00,
2013-03-30 19:40:00,54.8,26.3,30.06,NNE,32,0.0,0.0,33,0.00,,CLR,0.00,VWS V14.01,2013-03-30 23:40:00,
2013-03-30 19:45:00,54.4,26.6,30.06,NNE,32,0.0,0.0,34,0.00,,CLR,0.00,VWS V14.01,2013-03-30 23:45:00,
2013-03-30 19:50:00,54.1,26.4,30.06,NNE,32,0.0,0.0,34,0.00,,CLR,0.00,VWS V14.01,2013-03-30 23:50:00,
2013-03-30 19:56:00,53.8,26.1,30.06,NNE,32,0.0,0.0,34,0.00,,CLR,0.00,VWS V14.01,2013-03-30 23:56:00,
2013-03-30 20:00:00,53.3,27.7,30.06,NNE,32,0.0,0.0,37,0.00,,OVC100,0.00,VWS V14.01,2013-03-31 00:00:00,
2013-03-30 20:01:00,53.2,27.6,30.06,NNE,32,0.0,0.0,37,0.00,,CLR,0.00,VWS V14.01,2013-03-31 00:01:00,
2013-03-30 20:06:00,52.8,27.3,30.05,NNE,32,0.0,0.0,37,0.00,,CLR,0.00,VWS V14.01,2013-03-31 00:06:00,
2013-03-30 20:11:00,52.5,26.3,30.05,NNE,32,0.0,0.0,36,0.00,,CLR,0.00,VWS V14.01,2013-03-31 00:11:00,
2013-03-30 20:15:00,52.2,26.1,30.05,NNE,32,0.0,0.0,36,0.00,,OVC100,0.00,VWS V14.01,2013-03-31 00:15:00,
2013-03-30 20:16:00,52.0,25.9,30.05,NNE,32,0.0,0.0,36,0.00,,CLR,0.00,VWS V14.01,2013-03-31 00:16:00,
2013-03-30 20:21:00,51.4,27.3,30.05,NNE,32,0.0,0.0,39,0.00,,CLR,0.00,VWS V14.01,2013-03-31 00:21:00,
2013-03-30 20:26:00,51.0,26.9,30.05,NNE,32,0.0,0.0,39,0.00,,CLR,0.00,VWS V14.01,2013-03-31 00:26:00,
2013-03-30 20:30:00,50.8,27.4,30.05,NNE,32,0.0,0.0,40,0.00,,OVC100,0.00,VWS V14.01,2013-03-31 00:30:00,
2013-03-30 20:31:00,50.7,27.3,30.05,NNE,32,0.0,0.0,40,0.00,,CLR,0.00,VWS V14.01,2013-03-31 00:31:00,
2013-03-30 20:37:00,50.2,28.6,30.05,NNE,32,0.0,0.0,43,0.00,,CLR,0.00,VWS V14.01,2013-03-31 00:37:00,
2013-03-30 20:42:00,49.6,28.6,30.05,NNE,32,0.0,0.0,44,0.00,,CLR,0.00,VWS V14.01,2013-03-31 00:42:00,
2013-03-30 20:45:00,49.4,29.0,30.05,NNE,32,0.0,0.0,45,0.00,,OVC100,0.00,VWS V14.01,2013-03-31 00:45:00,
2013-03-30 20:47:00,49.2,28.8,30.05,NNE,32,0.0,0.0,45,0.00,,CLR,0.00,VWS V14.01,2013-03-31 00:47:00,
2013-03-30 20:52:00,48.6,28.2,30.05,NNE,32,0.0,0.0,45,0.00,,CLR,0.00,VWS V14.01,2013-03-31 00:52:00,
2013-03-30 20:57:00,48.2,27.3,30.04,NNE,32,0.0,0.0,44,0.00,,CLR,0.00,VWS V14.01,2013-03-31 00:57:00,
2013-03-30 21:00:00,48.0,27.7,30.05,NNE,32,0.0,0.0,45,0.00,,OVC100,0.00,VWS V14.01,2013-03-31 01:00:00,
2013-03-30 21:02:00,47.7,27.4,30.05,NNE,32,0.0,0.0,45,0.00,,CLR,0.00,VWS V14.01,2013-03-31 01:02:00,
2013-03-30 21:07:00,47.4,27.1,30.03,NNE,32,0.0,0.0,45,0.00,,CLR,0.00,VWS V14.01,2013-03-31 01:07:00,
2013-03-30 21:12:00,47.1,27.4,30.03,NNE,32,0.0,0.0,46,0.00,,CLR,0.00,VWS V14.01,2013-03-31 01:12:00,
2013-03-30 21:15:00,47.0,27.3,30.03,NNE,32,0.0,0.0,46,0.00,,OVC100,0.00,VWS V14.01,2013-03-31 01:15:00,
2013-03-30 21:17:00,46.8,27.1,30.03,NNE,32,0.0,0.0,46,0.00,,CLR,0.00,VWS V14.01,2013-03-31 01:17:00,
2013-03-30 21:22:00,46.5,26.9,30.03,NNE,32,0.0,0.0,46,0.00,,CLR,0.00,VWS V14.01,2013-03-31 01:22:00,
2013-03-30 21:27:00,46.4,26.8,30.03,NNE,32,0.0,0.0,46,0.00,,CLR,0.00,VWS V14.01,2013-03-31 01:27:00,
2013-03-30 21:30:00,46.2,27.1,30.03,NNE,32,0.0,0.0,47,0.00,,OVC100,0.00,VWS V14.01,2013-03-31 01:30:00,
2013-03-30 21:32:00,46.2,27.1,30.03,NNE,32,0.0,0.0,47,0.00,,CLR,0.00,VWS V14.01,2013-03-31 01:32:00,
2013-03-30 21:37:00,46.0,27.4,30.03,NNE,32,0.0,0.0,48,0.00,,CLR,0.00,VWS V14.01,2013-03-31 01:37:00,
2013-03-30 21:42:00,45.8,27.2,30.03,NNE,32,0.0,0.0,48,0.00,,CLR,0.00,VWS V14.01,2013-03-31 01:42:00,
2013-03-30 21:45:00,45.7,27.6,30.02,NNE,32,0.0,0.0,49,0.00,,OVC100,0.00,VWS V14.01,2013-03-31 01:45:00,
2013-03-30 21:47:00,45.5,27.5,30.02,NNE,32,0.0,0.0,49,0.00,,CLR,0.00,VWS V14.01,2013-03-31 01:47:00,
2013-03-30 21:53:00,45.4,27.4,30.02,NNE,32,0.0,0.0,49,0.00,,CLR,0.00,VWS V14.01,2013-03-31 01:53:00,
2013-03-30 21:58:00,45.2,27.2,30.02,NNE,32,0.0,0.0,49,0.00,,CLR,0.00,VWS V14.01,2013-03-31 01:58:00,
2013-03-30 22:00:00,45.1,27.1,30.02,NNE,32,0.0,0.0,49,0.00,,OVC100,0.00,VWS V14.01,2013-03-31 02:00:00,
2013-03-30 22:03:00,45.1,27.6,30.02,NNE,32,0.0,0.0,50,0.00,,CLR,0.00,VWS V14.01,2013-03-31 02:03:00,
2013-03-30 22:08:00,45.1,27.6,30.01,NNE,32,0.0,0.0,50,0.00,,CLR,0.00,VWS V14.01,2013-03-31 02:08:00,
2013-03-30 22:13:00,44.9,27.4,30.01,NNE,32,0.0,0.0,50,0.00,,CLR,0.00,VWS V14.01,2013-03-31 02:13:00,
2013-03-30 22:15:00,44.9,27.4,30.01,NNE,32,0.0,0.0,50,0.00,,OVC100,0.00,VWS V14.01,2013-03-31 02:15:00,
2013-03-30 22:18:00,44.9,27.9,30.01,NNE,32,0.0,0.0,51,0.00,,CLR,0.00,VWS V14.01,2013-03-31 02:18:00,
2013-03-30 22:23:00,44.9,27.4,30.01,NNE,32,0.0,0.0,50,0.00,,CLR,0.00,VWS V14.01,2013-03-31 02:23:00,
2013-03-30 22:28:00,44.9,27.4,30.00,NNE,32,0.0,0.0,50,0.00,,CLR,0.00,VWS V14.01,2013-03-31 02:28:00,
2013-03-30 22:30:00,44.9,27.4,30.00,NNE,32,0.0,0.0,50,0.00,,OVC100,0.00,VWS V14.01,2013-03-31 02:30:00,
2013-03-30 22:33:00,44.9,27.9,30.00,NNE,32,0.0,0.0,51,0.00,,CLR,0.00,VWS V14.01,2013-03-31 02:33:00,
2013-03-30 22:38:00,44.9,27.9,30.00,NNE,32,0.0,0.0,51,0.00,,CLR,0.00,VWS V14.01,2013-03-31 02:38:00,
2013-03-30 22:43:00,44.9,27.4,30.00,NNE,32,0.0,0.0,50,0.00,,CLR,0.00,VWS V14.01,2013-03-31 02:43:00,
2013-03-30 22:45:00,44.8,27.3,30.00,NNE,32,0.0,0.0,50,0.00,,OVC100,0.00,VWS V14.01,2013-03-31 02:45:00,
2013-03-30 22:48:00,44.8,27.3,30.00,NNE,32,0.0,0.0,50,0.00,,CLR,0.00,VWS V14.01,2013-03-31 02:48:00,
2013-03-30 22:53:00,44.8,27.3,29.99,NNE,32,0.0,0.0,50,0.00,,CLR,0.00,VWS V14.01,2013-03-31 02:53:00,
2013-03-30 22:58:00,44.8,27.8,29.99,NNE,32,0.0,0.0,51,0.00,,CLR,0.00,VWS V14.01,2013-03-31 02:58:00,
2013-03-30 23:00:00,44.8,27.8,29.99,NNE,32,0.0,0.0,51,0.00,,OVC100,0.00,VWS V14.01,2013-03-31 03:00:00,
2013-03-30 23:03:00,44.8,27.8,29.99,NNE,32,0.0,0.0,51,0.00,,CLR,0.00,VWS V14.01,2013-03-31 03:03:00,
2013-03-30 23:08:00,44.8,27.8,29.99,NNE,32,0.0,0.0,51,0.00,,CLR,0.00,VWS V14.01,2013-03-31 03:08:00,
2013-03-30 23:14:00,44.8,27.8,29.98,NNE,32,0.0,0.0,51,0.00,,CLR,0.00,VWS V14.01,2013-03-31 03:14:00,
2013-03-30 23:15:00,44.8,27.8,29.98,NNE,32,0.0,0.0,51,0.00,,OVC100,0.00,VWS V14.01,2013-03-31 03:15:00,
2013-03-30 23:19:00,44.6,27.6,29.98,NNE,32,0.0,0.0,51,0.00,,CLR,0.00,VWS V14.01,2013-03-31 03:19:00,
2013-03-30 23:24:00,44.5,28.9,29.98,NNE,32,0.0,0.0,54,0.00,,CLR,0.00,VWS V14.01,2013-03-31 03:24:00,
2013-03-30 23:29:00,44.2,29.1,29.98,NNE,32,0.0,0.0,55,0.00,,CLR,0.00,VWS V14.01,2013-03-31 03:29:00,
2013-03-30 23:30:00,44.1,29.0,29.98,NNE,32,0.0,0.0,55,0.00,,OVC100,0.00,VWS V14.01,2013-03-31 03:30:00,
2013-03-30 23:34:00,43.9,28.8,29.98,NNE,32,0.0,0.0,55,0.00,,CLR,0.00,VWS V14.01,2013-03-31 03:34:00,
2013-03-30 23:39:00,43.5,29.7,29.98,NNE,32,0.0,0.0,58,0.00,,CLR,0.00,VWS V14.01,2013-03-31 03:39:00,
2013-03-30 23:44:00,43.1,29.8,29.98,NNE,32,0.0,0.0,59,0.00,,CLR,0.00,VWS V14.01,2013-03-31 03:44:00,
2013-03-30 23:45:00,43.1,29.8,29.98,NNE,32,0.0,0.0,59,0.00,,OVC100,0.00,VWS V14.01,2013-03-31 03:45:00,
2013-03-30 23:49:00,42.6,29.7,29.98,NNE,32,0.0,0.0,60,0.00,,CLR,0.00,VWS V14.01,2013-03-31 03:49:00,
2013-03-30 23:54:00,42.3,29.8,29.97,NNE,32,0.0,0.0,61,0.00,,CLR,0.00,VWS V14.01,2013-03-31 03:54:00,
2013-03-30 23:59:00,42.1,29.6,29.97,NNE,32,0.0,0.0,61,0.00,,CLR,0.00,VWS V14.01,2013-03-31 03:59:00,